This is the latest recevied weather packets stored in our database for station/object PA1CG-7. If no packets are shown the sender has not sent any weather packets the latest 1 day(s).
| Time | Temp. | Humidity | Pressure | Rain* | Wind** | Luminosity | Snow |
|---|---|---|---|---|---|---|---|
| 1778043736 | 11.11° C | 80% | 1008.8 hPa | 0 mm | 2.68 m/s, 338° | - | - |
| 1778043135 | 11.67° C | 80% | 1009 hPa | 0 mm | 2.68 m/s, 315° | - | - |
| 1778042536 | 11.11° C | 80% | 1008.9 hPa | 0 mm | 4.02 m/s, 315° | - | - |
| 1778041936 | 11.11° C | 80% | 1008.9 hPa | 0 mm | 3.13 m/s, 293° | - | - |
| 1778041335 | 11.11° C | 79% | 1008.9 hPa | 0 mm | 3.58 m/s, 293° | - | - |
| 1778040735 | 11.11° C | 79% | 1008.9 hPa | 0 mm | 4.02 m/s, 315° | - | - |
| 1778040135 | 11.11° C | 79% | 1008.9 hPa | 0 mm | 1.79 m/s, 293° | - | - |
| 1778039536 | 11.11° C | 78% | 1008.9 hPa | 0 mm | 3.58 m/s, 315° | - | - |
| 1778038935 | 11.11° C | 79% | 1008.9 hPa | 0 mm | 4.02 m/s, 315° | - | - |
| 1778038336 | 11.11° C | 79% | 1009.1 hPa | 0 mm | 2.68 m/s, 315° | - | - |
| 1778037735 | 11.11° C | 79% | 1009.1 hPa | 0 mm | 3.13 m/s, 293° | - | - |
| 1778037135 | 11.11° C | 79% | 1009.1 hPa | 0 mm | 3.58 m/s, 315° | - | - |
| 1778036535 | 11.11° C | 78% | 1009.2 hPa | 0 mm | 2.68 m/s, 338° | - | - |
| 1778035935 | 11.11° C | 77% | 1009.2 hPa | 0 mm | 1.79 m/s, 293° | - | - |
| 1778035335 | 10.56° C | 77% | 1009.4 hPa | 0 mm | 3.58 m/s, 293° | - | - |
| 1778034735 | 10.56° C | 78% | 1009.3 hPa | 0 mm | 2.68 m/s, 315° | - | - |
| 1778034135 | 10.56° C | 79% | 1009.4 hPa | 0 mm | 2.24 m/s, 315° | - | - |
| 1778033537 | 10.56° C | 79% | 1009.4 hPa | 0 mm | 3.13 m/s, 315° | - | - |
| 1778032937 | 10° C | 80% | 1009.5 hPa | 0 mm | 1.79 m/s, 338° | - | - |
| 1778032338 | 10° C | 79% | 1009.5 hPa | 0 mm | 1.79 m/s, 293° | - | - |
| 1778031738 | 10° C | 78% | 1009.6 hPa | 0 mm | 3.13 m/s, 315° | - | - |
| 1778031137 | 10.56° C | 78% | 1009.6 hPa | 0 mm | 2.68 m/s, 315° | - | - |
| 1778030537 | 10.56° C | 78% | 1009.5 hPa | 0 mm | 1.34 m/s, 315° | - | - |
| 1778029938 | 10.56° C | 79% | 1009.6 hPa | 0 mm | 3.13 m/s, 338° | - | - |
| 1778029337 | 10.56° C | 79% | 1009.7 hPa | 0 mm | 4.02 m/s, 315° | - | - |
* Rain latest hour (hover to see other rain measurements)
** Current wind speed in m/s (hover to see current wind gust speed)